GW3344 Weather Reports


time (UTC)temp
C
wind
direction
speed
KPH
gust
KPH
rain 1hr
cm
rain 24hr
cm
rain mn
cm
humidity
%
barometer
mb
20260507071623 -17 0 0.0 0.0 0.00 0.03 0.00 100
20260507071524 -17 0 0.0 0.0 0.00 0.03 0.00 100
20260507065622 -17 0 0.0 0.0 0.00 0.03 0.00 100
20260507064625 -17 0 0.0 0.0 0.00 0.03 0.00 100
20260507063624 -17 0 0.0 0.0 0.00 0.03 0.00 100
20260507062624 5 202 0.0 0.0 0.00 0.03 0.00 96 1014.9
20260507060623 -17 0 0.0 0.0 0.00 0.03 0.00 100
20260507055624 -17 0 0.0 0.0 0.00 0.03 0.00 100
20260507054625 -17 0 0.0 0.0 0.00 0.03 0.00 100
20260507053624 -17 0 0.0 0.0 0.00 0.03 0.00 100
20260507052625 -17 0 0.0 0.0 0.00 0.03 0.00 100
20260507051625 6 202 0.0 0.0 0.00 0.03 0.00 95 1015.1
20260507050624 6 202 0.0 0.0 0.00 0.03 0.00 95 1015.4
20260507045722 6 202 0.0 0.0 0.00 0.03 0.00 94 1015.6
20260507044724 -17 0 0.0 0.0 0.00 0.03 0.00 100
20260507043740 -17 0 0.0 0.0 0.00 0.03 0.00 100
20260507041724 -17 0 0.0 0.0 0.00 0.03 0.00 100
20260507040727 -17 0 0.0 0.0 0.00 0.03 0.00 100
20260507035725 -17 0 0.0 0.0 0.00 0.03 0.00 100
20260507034823 -17 0 0.0 0.0 0.00 0.03 0.00 100
20260507033823 -17 0 0.0 0.0 0.00 0.03 0.00 100
20260507032913 -17 0 0.0 0.0 0.00 0.03 0.00 100
20260507030915 -17 0 0.0 0.0 0.00 0.03 0.00 100
20260507025928 -17 0 0.0 0.0 0.00 0.03 0.00 100
20260507024915 -17 0 0.0 0.0 0.00 0.03 0.00 100
20260507024012 7 247 1.6 1.6 0.00 0.03 0.03 94 1015.3
20260507023913 7 247 1.6 1.6 0.00 0.03 0.03 94 1015.3
20260507022914 -17 0 0.0 0.0 0.00 0.03 0.00 100
20260507021914 -17 0 0.0 0.0 0.00 0.03 0.00 100
20260507020814 7 225 3.2 4.8 0.00 0.03 0.03 95 1015.4
20260507015813 -17 0 0.0 0.0 0.00 0.03 0.00 100
20260507014812 -17 0 0.0 0.0 0.00 0.03 0.00 100
20260507013813 -17 0 0.0 0.0 0.00 0.03 0.00 100
20260507012911 -17 0 0.0 0.0 0.00 0.03 0.00 100
20260507011915 -17 0 0.0 0.0 0.00 0.03 0.00 100
20260507010912 7 247 0.0 0.0 0.00 0.03 0.03 93 1014.9
20260507004912 7 247 0.0 0.0 0.00 0.05 0.03 93 1014.8
20260507003914 7 225 0.0 0.0 0.00 0.05 0.03 93 1014.8
20260507003012 7 225 0.0 0.0 0.00 0.05 0.03 93 1014.8
20260507002012 7 225 0.0 0.0 0.00 0.05 0.03 92 1014.6
20260507001012 -17 0 0.0 0.0 0.00 0.05 0.00 100
20260507000014 -17 0 0.0 0.0 0.00 0.05 0.00 100
20260506235014 7 270 0.0 0.0 0.00 0.05 0.03 93 1014.7
20260506233115 7 315 0.0 0.0 0.00 0.05 0.03 93 1014.2
20260506232112 7 280 1.6 4.8 0.00 0.05 0.03 93 1014.3
20260506230114 7 312 0.0 0.0 0.00 0.05 0.03 94 1014.1
20260506225115 6 292 0.0 4.8 0.00 0.05 0.03 93 1014.1
20260506224115 6 302 0.0 3.2 0.00 0.05 0.03 92 1013.8
20260506222212 7 306 3.2 6.4 0.00 0.08 0.03 91 1013.5
20260506221214 7 310 1.6 4.8 0.03 0.08 0.03 90 1013.5
20260506215312 8 307 3.2 6.4 0.03 0.08 0.03 89 1013.1
20260506212314 10 360 0.0 0.0 0.03 0.08 0.03 82 1012.4
20260506211314 10 321 0.0 4.8 0.00 0.08 0.00 80 1012.4
20260506210314 10 112 0.0 0.0 0.00 0.08 0.00 78 1012.3
20260506204314 10 112 0.0 0.0 0.00 0.08 0.00 77 1012.2
20260506203313 11 93 1.6 4.8 0.00 0.08 0.00 77 1012.4
20260506200313 10 90 0.0 3.2 0.00 0.08 0.00 80 1012.4
20260506195313 10 90 0.0 0.0 0.00 0.08 0.00 78 1012.5
20260506194313 10 22 0.0 0.0 0.00 0.08 0.00 77 1012.7
20260506193411 11 294 0.0 0.0 0.00 0.08 0.00 76 1012.6
20260506191414 10 96 3.2 8.0 0.00 0.08 0.00 80 1012.3
20260506190413 10 121 0.0 0.0 0.00 0.08 0.00 83 1012.4
20260506184414 9 100 3.2 6.4 0.00 0.08 0.00 86 1012.4
20260506183415 8 90 0.0 4.8 0.00 0.08 0.00 87 1012.9
20260506182514 9 90 3.2 4.8 0.00 0.08 0.00 88 1012.7
20260506181612 8 90 0.0 0.0 0.00 0.08 0.00 88 1012.8
20260506175614 8 90 0.0 0.0 0.00 0.08 0.00 84 1012.8
20260506174613 9 90 1.6 4.8 0.00 0.08 0.00 85 1013.0
20260506173611 8 75 0.0 3.2 0.00 0.08 0.00 84 1012.8
20260506172613 9 90 3.2 4.8 0.00 0.08 0.00 84 1012.7
20260506171613 8 90 0.0 0.0 0.00 0.08 0.00 86 1012.6
20260506165613 8 90 0.0 1.6 0.00 0.08 0.00 87 1012.4
20260506163614 -17 0 0.0 0.0 0.00 0.08 0.00 100
20260506162612 -17 0 0.0 0.0 0.00 0.08 0.00 100
20260506160712 8 45 0.0 0.0 0.00 0.08 0.00 87 1012.3
20260506155719 8 90 6.4 6.4 0.00 0.08 0.00 89 1012.4
20260506154718 8 90 1.6 1.6 0.00 0.08 0.00 90 1012.3
20260506153718 8 90 0.0 0.0 0.00 0.08 0.00 91 1012.1
20260506152719 8 90 3.2 6.4 0.00 0.08 0.00 92 1012.2
20260506151817 8 62 0.0 1.6 0.00 0.08 0.00 94 1012.2
20260506150819 8 82 1.6 4.8 0.00 0.08 0.00 94 1012.0
20260506145918 8 88 3.2 6.4 0.00 0.08 0.00 92 1012.1
20260506143920 8 90 3.2 4.8 0.00 0.08 0.00 95 1012.1
20260506142019 8 108 6.4 8.0 0.00 0.08 0.00 94 1012.0
20260506141020 7 90 3.2 6.4 0.00 0.08 0.00 94 1011.9
20260506140019 7 76 4.8 6.4 0.00 0.08 0.00 94 1011.9
20260506135019 7 90 0.0 0.0 0.00 0.08 0.00 94 1011.9
20260506134036 7 90 4.8 9.7 0.00 0.08 0.00 93 1011.6
20260506132019 7 118 4.8 8.0 0.00 0.08 0.00 94 1011.6
20260506131118 7 104 6.4 11.3 0.00 0.08 0.00 95 1011.4
20260506130119 7 100 4.8 8.0 0.00 0.08 0.00 95 1011.3
20260506125118 8 92 9.7 14.5 0.00 0.08 0.00 95 1011.3
20260506123118 8 108 6.4 12.9 0.00 0.08 0.00 96 1011.1
20260506122118 7 156 0.0 6.4 0.00 0.08 0.00 96 1011.1
20260506121217 8 90 8.0 11.3 0.00 0.08 0.00 96 1010.9
20260506120220 8 90 6.4 11.3 0.00 0.08 0.00 95 1010.8
20260506115219 8 90 4.8 6.4 0.00 0.08 0.00 95 1011.2
20260506114318 8 89 6.4 11.3 0.00 0.08 0.00 94 1011.0
20260506114220 8 90 6.4 11.3 0.00 0.08 0.00 94 1011.1
20260506113220 8 90 8.0 9.7 0.00 0.08 0.00 96 1011.1
20260506112220 8 86 3.2 6.4 0.00 0.08 0.00 96 1011.3
20260506110218 8 112 1.6 4.8 0.00 0.08 0.00 96 1011.1
20260506104219 8 118 4.8 9.7 0.00 0.08 0.00 96 1010.6
20260506103317 8 104 8.0 12.9 0.00 0.08 0.00 96 1010.3
20260506102320 8 102 6.4 12.9 0.00 0.08 0.00 96 1010.7
20260506100418 8 111 3.2 6.4 0.00 0.08 0.00 96 1011.2
20260506095418 8 91 8.0 11.3 0.00 0.08 0.00 96 1011.1
20260506094517 8 112 0.0 0.0 0.00 0.08 0.00 97 1011.2
20260506093519 8 112 0.0 1.6 0.00 0.08 0.00 95 1011.3
20260506092518 8 90 0.0 1.6 0.00 0.08 0.00 96 1011.2
20260506083618 8 112 6.4 11.3 0.00 0.08 0.00 95 1011.0
20260506082619 8 80 0.0 4.8 0.00 0.08 0.00 97 1010.9
20260506080619 8 90 3.2 4.8 0.00 0.08 0.00 95 1011.2
20260506072718 9 81 4.8 8.0 0.00 0.08 0.00 96 1010.9